DELTA 1 DEB, 21342

Orbit data source: Space-Track

DELTA 1 DEB, 21342 is space debris in SSO originally from a launch on Thu, 12 Jun 1975 UTC launched from the Air Force Western Test Range (AFWTR). Debris objects in space refer to the collection of defunct objects orbiting the Earth. Examples of debris include non-operational satellites, rocket bodies, and fragments generated from explosions, collisions, or faulty payload assembly.

Loading next visibility...
Identifier
21342, 1975-052BL
Orbit
SSO
Country
Flag of USUS
Related business
Manufacturer
Unknown
Mission
Spacecraft
Bus & Motor
Unknown
Mass
Unknown
Launch date (UTC)
1975-06-12 (50 years ago)
Launch vehicle
Unknown
Launch site
Air Force Western Test Range (AFWTR)
Object type
Payload
Rocket body
Debris
Shape & HBR
Unknown shape, 0.1 m
Radar Cross Section
Small (<0.1 m²)

Expand to show TLE details & history
Last TLE update: 16 hours ago

TLE from 16 hours ago
0 DELTA 1 DEB
1 21342U 75052BL  25300.23560029  .00004268  00000-0  13126-2 0  9993
2 21342  99.9901 275.1181 0124370 224.3532 253.7323 14.37825910771767
Epoch: 2025-10-27T05:39Z
TLE epoch observation values (Epoch: 2025-10-27T05:39:15.865Z)
Latitude
61.69533°
Longitude
-6.55187°
Altitude
802.083 km
Speed
7.445 km/s
True Right ascension
07h 36m 25s
True Declination
61° 33' 09"
Sunlit
Object was in daylight at epoch
Visualization orbit readout
Latitude
Unknown
Longitude
Unknown
Altitude
Unknown
Speed
Unknown
Apparent Right ascension
Unknown
Apparent Declination
Unknown
Sunlit
N/A
Visualization observer readout
Local Sidereal Time
16:43:24
Azimuth
Unknown
Elevation
Unknown
Doppler factor
Unknown
Orbital elements
Apogee altitude
851.704 km
Perigee altitude
674.078 km
Semi-major axis
7,141.028 km
Eccentricity
0.01244
Inclination
99.9901°
RAAN
275.1181°
Arg. of periapsis
224.3532°
True anomaly
252.37025°
Mean anomaly
253.7323°
Eccentric anomaly
253.05067°
Mean motion
3.59668 °/min
Orbital period
100.09 mins
BSTAR
0.0013126
Loading maneuver chart data...
Computing Atmospheric mass density...
Loading historical data...
Loading historical data...
Loading historical data...
Loading historical data...
Loading historical data...
Loading historical data...
Loading historical data...

Documentation

Showing up to 5 results
|